| time (UTC) | temp C | wind direction | speed KPH | gust KPH | rain 1hr cm | rain 24hr cm | rain mn cm | humidity % | barometer mb |
| 20260506112602 | 17 | 90 | 0.0 | 0.0 | 0.00 | 0.00 | 0.00 | 80 | 1013.6 |
| 20260506111602 | 17 | 90 | 0.0 | 0.0 | 0.00 | 0.00 | 0.00 | 79 | 1013.2 |
| 20260506110601 | 17 | 80 | 0.0 | 1.6 | 0.00 | 0.00 | 0.00 | 79 | 1013.4 |
| 20260506104602 | 17 | 90 | 0.0 | 3.2 | 0.00 | 0.00 | 0.00 | 78 | 1012.8 |
| 20260506103601 | 17 | 122 | 0.0 | 0.0 | 0.00 | 0.00 | 0.00 | 78 | 1012.6 |
| 20260506102601 | 17 | 81 | 0.0 | 3.2 | 0.00 | 0.00 | 0.00 | 78 | 1012.6 |
| 20260506100602 | 17 | 44 | 0.0 | 0.0 | 0.00 | 0.00 | 0.00 | 77 | 1012.7 |
| 20260506095601 | 17 | 73 | 0.0 | 3.2 | 0.00 | 0.00 | 0.00 | 77 | 1012.6 |
| 20260506094602 | 17 | 110 | 0.0 | 0.0 | 0.00 | 0.00 | 0.00 | 77 | 1012.7 |
| 20260506093601 | 17 | 83 | 0.0 | 1.6 | 0.00 | 0.00 | 0.00 | 77 | 1012.6 |
| 20260506092602 | 17 | 66 | 0.0 | 1.6 | 0.00 | 0.00 | 0.00 | 76 | 1012.7 |
| 20260506091603 | 17 | 75 | 0.0 | 3.2 | 0.00 | 0.00 | 0.00 | 76 | 1012.7 |
| 20260506090602 | 17 | 53 | 0.0 | 1.6 | 0.00 | 0.00 | 0.00 | 76 | 1012.7 |
| 20260506083601 | 17 | 77 | 0.0 | 1.6 | 0.00 | 0.00 | 0.00 | 76 | 1013.2 |
| 20260506082602 | 17 | 82 | 0.0 | 1.6 | 0.00 | 0.00 | 0.00 | 76 | 1013.1 |
| 20260506081602 | 18 | 76 | 0.0 | 1.6 | 0.00 | 0.00 | 0.00 | 76 | 1013.1 |
| 20260506072601 | 18 | 85 | 0.0 | 3.2 | 0.00 | 0.00 | 0.00 | 75 | 1013.2 |
| 20260506070601 | 18 | 102 | 0.0 | 3.2 | 0.00 | 0.00 | 0.00 | 75 | 1013.6 |
| 20260506061602 | 18 | 89 | 0.0 | 3.2 | 0.00 | 0.00 | 0.00 | 73 | 1013.5 |
| 20260506050602 | 19 | 95 | 0.0 | 1.6 | 0.00 | 0.00 | 0.00 | 71 | 1013.7 |
| 20260506043601 | 20 | 94 | 0.0 | 4.8 | 0.00 | 0.00 | 0.00 | 69 | 1013.7 |
| 20260506042602 | 20 | 174 | 0.0 | 3.2 | 0.00 | 0.00 | 0.00 | 69 | 1013.7 |
| 20260506035601 | 20 | 71 | 0.0 | 3.2 | 0.00 | 0.00 | 0.00 | 65 | 1013.6 |
| 20260506034602 | 20 | 95 | 0.0 | 1.6 | 0.00 | 0.00 | 0.00 | 64 | 1013.6 |
| 20260506033602 | 20 | 112 | 0.0 | 4.8 | 0.00 | 0.00 | 0.00 | 61 | 1013.4 |
| 20260506032601 | 20 | 57 | 0.0 | 1.6 | 0.00 | 0.00 | 0.00 | 61 | 1013.5 |
| 20260506031602 | 20 | 56 | 0.0 | 0.0 | 0.00 | 0.00 | 0.00 | 62 | 1013.4 |
| 20260506030602 | 20 | 56 | 0.0 | 0.0 | 0.00 | 0.00 | 0.00 | 62 | 1013.4 |
| 20260506025601 | 20 | 56 | 0.0 | 0.0 | 0.00 | 0.00 | 0.00 | 62 | 1013.4 |
| 20260506023601 | 21 | 52 | 0.0 | 0.0 | 0.00 | 0.00 | 0.00 | 62 | 1013.1 |
| 20260506022602 | 21 | 52 | 0.0 | 0.0 | 0.00 | 0.00 | 0.00 | 60 | 1013.0 |
| 20260506021602 | 21 | 52 | 0.0 | 0.0 | 0.00 | 0.00 | 0.00 | 58 | 1012.9 |
| 20260506020602 | 21 | 52 | 0.0 | 0.0 | 0.00 | 0.00 | 0.00 | 58 | 1013.0 |
| 20260506015601 | 21 | 52 | 0.0 | 0.0 | 0.00 | 0.00 | 0.00 | 58 | 1013.0 |
| 20260506014602 | 21 | 52 | 0.0 | 0.0 | 0.00 | 0.00 | 0.00 | 58 | 1013.2 |
| 20260506013602 | 21 | 52 | 0.0 | 0.0 | 0.00 | 0.00 | 0.00 | 59 | 1013.2 |
| 20260506012602 | 21 | 52 | 0.0 | 0.0 | 0.00 | 0.00 | 0.00 | 58 | 1013.3 |
| 20260506005602 | 22 | 52 | 0.0 | 0.0 | 0.00 | 0.00 | 0.00 | 56 | 1013.0 |
| 20260506004601 | 22 | 52 | 0.0 | 0.0 | 0.00 | 0.00 | 0.00 | 55 | 1013.0 |
| 20260506003601 | 23 | 52 | 0.0 | 0.0 | 0.00 | 0.00 | 0.00 | 55 | 1013.1 |
| 20260506002602 | 23 | 52 | 0.0 | 0.0 | 0.00 | 0.00 | 0.00 | 52 | 1013.0 |
| 20260506001602 | 23 | 52 | 0.0 | 0.0 | 0.00 | 0.00 | 0.00 | 51 | 1012.9 |
| 20260506000602 | 23 | 52 | 0.0 | 0.0 | 0.00 | 0.00 | 0.00 | 50 | 1012.8 |
| 20260505235602 | 24 | 52 | 0.0 | 0.0 | 0.00 | 0.00 | 0.00 | 48 | 1012.7 |
| 20260505234602 | 24 | 52 | 0.0 | 0.0 | 0.00 | 0.00 | 0.00 | 49 | 1012.5 |
| 20260505232602 | 24 | 59 | 0.0 | 3.2 | 0.00 | 0.00 | 0.00 | 47 | 1012.4 |
| 20260505231601 | 24 | 23 | 0.0 | 3.2 | 0.00 | 0.00 | 0.00 | 49 | 1012.5 |
| 20260505230601 | 24 | 46 | 0.0 | 0.0 | 0.00 | 0.00 | 0.00 | 48 | 1012.6 |
| 20260505221602 | 25 | 61 | 0.0 | 4.8 | 0.00 | 0.00 | 0.00 | 43 | 1012.8 |
| 20260505220602 | 25 | 96 | 0.0 | 3.2 | 0.00 | 0.00 | 0.00 | 44 | 1012.7 |
| 20260505214601 | 25 | 120 | 0.0 | 1.6 | 0.00 | 0.00 | 0.00 | 43 | 1012.8 |
| 20260505213601 | 25 | 85 | 0.0 | 3.2 | 0.00 | 0.00 | 0.00 | 42 | 1012.8 |
| 20260505212602 | 25 | 58 | 0.0 | 1.6 | 0.00 | 0.00 | 0.00 | 42 | 1012.8 |
| 20260505211601 | 25 | 258 | 0.0 | 4.8 | 0.00 | 0.00 | 0.00 | 43 | 1012.9 |
| 20260505210602 | 25 | 314 | 0.0 | 3.2 | 0.00 | 0.00 | 0.00 | 42 | 1012.9 |
| 20260505205602 | 25 | 188 | 0.0 | 3.2 | 0.00 | 0.00 | 0.00 | 42 | 1013.1 |
| 20260505204602 | 25 | 288 | 0.0 | 3.2 | 0.00 | 0.00 | 0.00 | 44 | 1013.2 |
| 20260505203601 | 25 | 316 | 0.0 | 3.2 | 0.00 | 0.00 | 0.00 | 41 | 1013.2 |
| 20260505202601 | 25 | 295 | 0.0 | 4.8 | 0.00 | 0.00 | 0.00 | 42 | 1013.2 |
| 20260505201601 | 25 | 63 | 0.0 | 3.2 | 0.00 | 0.00 | 0.00 | 44 | 1013.3 |
| 20260505200602 | 26 | 94 | 0.0 | 4.8 | 0.00 | 0.00 | 0.00 | 41 | 1013.6 |
| 20260505195601 | 26 | 121 | 0.0 | 3.2 | 0.00 | 0.00 | 0.00 | 41 | 1013.8 |
| 20260505194601 | 26 | 246 | 0.0 | 3.2 | 0.00 | 0.00 | 0.00 | 42 | 1014.1 |
| 20260505193602 | 25 | 299 | 0.0 | 1.6 | 0.00 | 0.00 | 0.00 | 44 | 1014.1 |
| 20260505191601 | 25 | 345 | 0.0 | 3.2 | 0.00 | 0.00 | 0.00 | 40 | 1014.3 |
| 20260505185601 | 25 | 305 | 0.0 | 3.2 | 0.00 | 0.00 | 0.00 | 40 | 1014.5 |
| 20260505184602 | 25 | 16 | 0.0 | 1.6 | 0.00 | 0.00 | 0.00 | 43 | 1014.4 |
| 20260505183602 | 25 | 307 | 0.0 | 3.2 | 0.00 | 0.00 | 0.00 | 39 | 1014.5 |
| 20260505181602 | 26 | 256 | 0.0 | 3.2 | 0.00 | 0.00 | 0.00 | 40 | 1015.2 |
| 20260505180602 | 25 | 21 | 0.0 | 4.8 | 0.00 | 0.00 | 0.00 | 40 | 1015.3 |
| 20260505175601 | 25 | 254 | 0.0 | 4.8 | 0.00 | 0.00 | 0.00 | 40 | 1015.6 |
| 20260505174602 | 25 | 278 | 0.0 | 3.2 | 0.00 | 0.00 | 0.00 | 43 | 1015.8 |
| 20260505173601 | 25 | 209 | 0.0 | 4.8 | 0.00 | 0.00 | 0.00 | 42 | 1015.7 |
| 20260505172601 | 24 | 260 | 0.0 | 3.2 | 0.00 | 0.00 | 0.00 | 43 | 1015.8 |
| 20260505171602 | 25 | 263 | 1.6 | 3.2 | 0.00 | 0.00 | 0.00 | 41 | 1015.7 |
| 20260505170602 | 24 | 186 | 0.0 | 3.2 | 0.00 | 0.00 | 0.00 | 40 | 1015.5 |
| 20260505165602 | 24 | 165 | 0.0 | 3.2 | 0.00 | 0.00 | 0.00 | 42 | 1015.6 |
| 20260505164602 | 23 | 290 | 0.0 | 4.8 | 0.00 | 0.00 | 0.00 | 41 | 1015.8 |
| 20260505162602 | 23 | 206 | 0.0 | 6.4 | 0.00 | 0.00 | 0.00 | 43 | 1016.1 |
| 20260505161601 | 23 | 249 | 0.0 | 6.4 | 0.00 | 0.00 | 0.00 | 49 | 1016.5 |
| 20260505152601 | 22 | 298 | 0.0 | 3.2 | 0.00 | 0.00 | 0.00 | 59 | 1016.8 |
| 20260505151601 | 22 | 38 | 0.0 | 3.2 | 0.00 | 0.00 | 0.00 | 62 | 1016.8 |
| 20260505150601 | 21 | 64 | 0.0 | 1.6 | 0.00 | 0.00 | 0.00 | 63 | 1016.8 |
| 20260505140602 | 18 | 295 | 0.0 | 1.6 | 0.00 | 0.00 | 0.00 | 76 | 1016.5 |
| 20260505124601 | 12 | 86 | 0.0 | 0.0 | 0.00 | 0.00 | 0.00 | 92 | 1016.4 |
| 20260505123601 | 12 | 86 | 0.0 | 0.0 | 0.00 | 0.00 | 0.00 | 92 | 1016.3 |
| 20260505122602 | 12 | 86 | 0.0 | 0.0 | 0.00 | 0.00 | 0.00 | 92 | 1016.4 |
| 20260505121601 | 12 | 86 | 0.0 | 0.0 | 0.00 | 0.00 | 0.00 | 92 | 1016.2 |
| 20260505120602 | 11 | 86 | 0.0 | 0.0 | 0.00 | 0.00 | 0.00 | 92 | 1016.1 |
| 20260505115602 | 11 | 86 | 0.0 | 0.0 | 0.00 | 0.00 | 0.00 | 91 | 1015.9 |
| 20260505114601 | 11 | 86 | 0.0 | 0.0 | 0.00 | 0.00 | 0.00 | 91 | 1015.8 |